When you browse on this site, cookies collect data to enhance your experience and personalize the content and advertising you see.
Visit our Privacy Policy to learn more. By continuing to use the site, you agree to this use of cookies and data.
  • In Deutschland
  • Länderverzeichnis
  • Für 7 Tage
  • Wassertemperatur
  • Wetterkarte
  • Widgets
  • user-avatar
    Anmelden

    Stündliche Wetter Gasni

    Heute, 21 Januar, Dienstag

    Zeit Temperatur Niederschläge Wind Luftdruck Luftfeuchtigkeit
    00:00 -6°C° 0.2 mm 1 m/S 580 mmHg 95%
    01:00 -6°C° 0.2 mm 1 m/S 580 mmHg 94%
    02:00 -6°C° 0.2 mm 1 m/S 580 mmHg 93%
    03:00 -7°C° 0.1 mm 1 m/S 579 mmHg 92%
    04:00 -7°C° 0.1 mm 1 m/S 579 mmHg 90%
    05:00 -8°C° 0.1 mm 1 m/S 579 mmHg 89%
    06:00 -8°C° 0 mm 1 m/S 579 mmHg 87%
    07:00 -9°C° 0 mm 1 m/S 579 mmHg 85%
    08:00 -9°C° 0 mm 1 m/S 579 mmHg 84%
    09:00 -8°C° 0 mm 1 m/S 580 mmHg 82%
    10:00 -7°C° 0 mm 1 m/S 581 mmHg 80%
    11:00 -5°C° 0 mm 0 m/S 582 mmHg 78%
    12:00 -4°C° 0 mm 1 m/S 581 mmHg 80%
    13:00 -3°C° 0 mm 1 m/S 581 mmHg 82%
    14:00 -3°C° 0 mm 1 m/S 581 mmHg 84%
    15:00 -4°C° 0 mm 1 m/S 580 mmHg 87%
    16:00 -6°C° 0 mm 1 m/S 580 mmHg 89%
    17:00 -7°C° 0 mm 0 m/S 580 mmHg 92%
    18:00 -7°C° 0 mm 0 m/S 580 mmHg 93%
    19:00 -8°C° 0 mm 0 m/S 581 mmHg 94%
    20:00 -9°C° 0 mm 0 m/S 581 mmHg 95%
    21:00 -9°C° 0 mm 1 m/S 582 mmHg 94%
    22:00 -9°C° 0 mm 1 m/S 582 mmHg 93%
    23:00 -9°C° 0 mm 1 m/S 582 mmHg 92%

    Morgen, 22 Januar, Mittwoch

    Zeit Temperatur Niederschläge Wind Luftdruck Luftfeuchtigkeit
    00:00 -9°C° 0 mm 1 m/S 582 mmHg 90%
    01:00 -9°C° 0 mm 1 m/S 582 mmHg 89%
    02:00 -10°C° 0 mm 1 m/S 582 mmHg 87%
    03:00 -10°C° 0 mm 1 m/S 582 mmHg 85%
    04:00 -11°C° 0 mm 1 m/S 582 mmHg 83%
    05:00 -13°C° 0 mm 2 m/S 582 mmHg 80%
    06:00 -13°C° 0 mm 2 m/S 583 mmHg 78%
    07:00 -14°C° 0 mm 2 m/S 583 mmHg 75%
    08:00 -14°C° 0 mm 2 m/S 583 mmHg 73%
    09:00 -12°C° 0 mm 2 m/S 584 mmHg 72%
    10:00 -9°C° 0 mm 1 m/S 585 mmHg 71%
    11:00 -7°C° 0 mm 1 m/S 585 mmHg 70%
    12:00 -6°C° 0 mm 1 m/S 585 mmHg 71%
    13:00 -4°C° 0 mm 1 m/S 585 mmHg 72%
    14:00 -4°C° 0 mm 1 m/S 584 mmHg 73%
    15:00 -6°C° 0 mm 1 m/S 584 mmHg 76%
    16:00 -7°C° 0 mm 0 m/S 583 mmHg 79%
    17:00 -8°C° 0 mm 0 m/S 582 mmHg 82%
    18:00 -9°C° 0 mm 0 m/S 583 mmHg 80%
    19:00 -10°C° 0 mm 1 m/S 583 mmHg 77%
    20:00 -10°C° 0 mm 1 m/S 584 mmHg 74%
    21:00 -11°C° 0 mm 1 m/S 584 mmHg 72%
    22:00 -13°C° 0 mm 2 m/S 584 mmHg 70%
    23:00 -13°C° 0 mm 2 m/S 584 mmHg 68%

    übermorgen, 23 Januar, Donnerstag

    Zeit Temperatur Niederschläge Wind Luftdruck Luftfeuchtigkeit
    00:00 -13°C° 0 mm 2 m/S 584 mmHg 68%
    01:00 -14°C° 0 mm 2 m/S 583 mmHg 68%
    02:00 -14°C° 0 mm 2 m/S 583 mmHg 68%
    03:00 -14°C° 0 mm 2 m/S 583 mmHg 67%
    04:00 -14°C° 0 mm 2 m/S 583 mmHg 65%
    05:00 -14°C° 0 mm 2 m/S 583 mmHg 63%
    06:00 -14°C° 0 mm 2 m/S 583 mmHg 61%
    07:00 -14°C° 0 mm 2 m/S 583 mmHg 59%
    08:00 -14°C° 0 mm 2 m/S 583 mmHg 57%
    09:00 -12°C° 0 mm 2 m/S 584 mmHg 59%
    10:00 -9°C° 0 mm 2 m/S 585 mmHg 61%
    11:00 -7°C° 0 mm 2 m/S 585 mmHg 63%
    12:00 -6°C° 0 mm 2 m/S 585 mmHg 64%
    13:00 -3°C° 0 mm 1 m/S 584 mmHg 66%
    14:00 -2°C° 0 mm 1 m/S 584 mmHg 67%
    15:00 -3°C° 0 mm 1 m/S 583 mmHg 69%
    16:00 -6°C° 0 mm 0 m/S 582 mmHg 70%
    17:00 -7°C° 0 mm 0 m/S 582 mmHg 71%
    18:00 -8°C° 0 mm 0 m/S 582 mmHg 69%
    19:00 -8°C° 0 mm 0 m/S 582 mmHg 67%
    20:00 -9°C° 0 mm 0 m/S 582 mmHg 64%
    21:00 -9°C° 0 mm 1 m/S 582 mmHg 64%
    22:00 -9°C° 0 mm 1 m/S 582 mmHg 63%
    23:00 -9°C° 0 mm 1 m/S 583 mmHg 63%

    24 Januar, Freitag

    Zeit Temperatur Niederschläge Wind Luftdruck Luftfeuchtigkeit
    00:00 -9°C° 0 mm 1 m/S 582 mmHg 62%
    01:00 -9°C° 0 mm 1 m/S 582 mmHg 62%
    02:00 -9°C° 0 mm 1 m/S 582 mmHg 62%
    03:00 -9°C° 0 mm 1 m/S 581 mmHg 61%
    04:00 -9°C° 0 mm 1 m/S 581 mmHg 60%
    05:00 -9°C° 0 mm 1 m/S 581 mmHg 60%
    06:00 -9°C° 0 mm 1 m/S 581 mmHg 59%
    07:00 -9°C° 0 mm 1 m/S 581 mmHg 58%
    08:00 -9°C° 0 mm 1 m/S 581 mmHg 57%
    09:00 -7°C° 0 mm 1 m/S 582 mmHg 59%
    10:00 -4°C° 0 mm 1 m/S 582 mmHg 60%
    11:00 -2°C° 0 mm 1 m/S 583 mmHg 61%
    12:00 -2°C° 0 mm 1 m/S 582 mmHg 63%
    13:00 -1°C° 0 mm 1 m/S 582 mmHg 64%
    14:00 0°C° 0 mm 1 m/S 582 mmHg 66%
    15:00 -1°C° 0 mm 1 m/S 581 mmHg 70%
    16:00 -3°C° 0 mm 0 m/S 580 mmHg 73%
    17:00 -4°C° 0 mm 0 m/S 580 mmHg 77%
    18:00 -4°C° 0 mm 0 m/S 580 mmHg 78%
    19:00 -5°C° 0 mm 0 m/S 580 mmHg 79%
    20:00 -5°C° 0 mm 0 m/S 581 mmHg 80%
    21:00 -6°C° 0 mm 0 m/S 580 mmHg 80%
    22:00 -6°C° 0 mm 0 m/S 580 mmHg 80%
    23:00 -7°C° 0 mm 0 m/S 580 mmHg 80%

    25 Januar, Samstag

    Zeit Temperatur Niederschläge Wind Luftdruck Luftfeuchtigkeit
    00:00 -7°C° 0 mm 1 m/S 580 mmHg 80%
    01:00 -7°C° 0 mm 1 m/S 579 mmHg 80%
    02:00 -8°C° 0 mm 1 m/S 579 mmHg 80%
    03:00 -8°C° 0 mm 1 m/S 579 mmHg 80%
    04:00 -8°C° 0 mm 1 m/S 579 mmHg 79%
    05:00 -9°C° 0 mm 2 m/S 579 mmHg 79%
    06:00 -8°C° 0 mm 1 m/S 579 mmHg 79%
    07:00 -8°C° 0 mm 1 m/S 579 mmHg 79%
    08:00 -8°C° 0 mm 1 m/S 580 mmHg 79%
    09:00 -6°C° 0 mm 1 m/S 581 mmHg 78%
    10:00 -4°C° 0 mm 1 m/S 581 mmHg 77%
    11:00 -3°C° 0 mm 0 m/S 582 mmHg 76%
    12:00 -2°C° 0 mm 1 m/S 582 mmHg 78%
    13:00 -1°C° 0 mm 1 m/S 581 mmHg 80%
    14:00 0°C° 0 mm 1 m/S 581 mmHg 82%
    15:00 -1°C° 0 mm 1 m/S 580 mmHg 84%
    16:00 -3°C° 0 mm 0 m/S 580 mmHg 86%
    17:00 -4°C° 0 mm 0 m/S 579 mmHg 88%
    18:00 -4°C° 0 mm 1 m/S 580 mmHg 87%
    19:00 -6°C° 0 mm 1 m/S 580 mmHg 87%
    20:00 -7°C° 0 mm 1 m/S 580 mmHg 86%
    21:00 -7°C° 0 mm 1 m/S 580 mmHg 85%
    22:00 -7°C° 0 mm 1 m/S 580 mmHg 84%
    23:00 -8°C° 0 mm 1 m/S 580 mmHg 83%

    26 Januar, Sonntag

    Zeit Temperatur Niederschläge Wind Luftdruck Luftfeuchtigkeit
    00:00 -8°C° 0 mm 1 m/S 580 mmHg 82%
    01:00 -8°C° 0 mm 1 m/S 580 mmHg 80%
    02:00 -9°C° 0 mm 2 m/S 580 mmHg 79%
    03:00 -9°C° 0 mm 2 m/S 580 mmHg 76%
    04:00 -9°C° 0 mm 2 m/S 580 mmHg 73%
    05:00 -9°C° 0 mm 2 m/S 580 mmHg 70%
    06:00 -9°C° 0 mm 2 m/S 580 mmHg 66%
    07:00 -9°C° 0 mm 2 m/S 580 mmHg 62%
    08:00 -10°C° 0 mm 2 m/S 580 mmHg 58%
    09:00 -8°C° 0 mm 2 m/S 581 mmHg 60%
    10:00 -6°C° 0 mm 1 m/S 581 mmHg 61%
    11:00 -3°C° 0 mm 1 m/S 581 mmHg 62%
    12:00 -2°C° 0 mm 1 m/S 581 mmHg 64%
    13:00 -3°C° 0 mm 0 m/S 580 mmHg 65%
    14:00 -2°C° 0 mm 0 m/S 580 mmHg 67%
    15:00 -3°C° 0 mm 0 m/S 579 mmHg 70%
    16:00 -5°C° 0 mm 0 m/S 578 mmHg 72%
    17:00 -6°C° 0 mm 0 m/S 578 mmHg 75%
    18:00 -7°C° 0 mm 0 m/S 578 mmHg 73%
    19:00 -7°C° 0 mm 1 m/S 578 mmHg 71%
    20:00 -8°C° 0 mm 1 m/S 578 mmHg 69%
    21:00 -8°C° 0 mm 1 m/S 578 mmHg 68%
    22:00 -9°C° 0 mm 2 m/S 578 mmHg 67%
    23:00 -9°C° 0 mm 2 m/S 578 mmHg 66%
    Mehr zeigen